Weather in Buron

Russia / Republic of North Ossetia — Alania     42°47′40″N   44°00′30″E
temp.,
°C
wind,
m/s
gust,
m/s
humid.,
%
clouds,
%
prec.,
mm/h
press.,
hPa
HPBL,
m
7 march, sun
sun700:00−10sw567497 0.0 1017104
03:00−11sw459292 0.1 101995
06:00−13sw129853 0.6 102260
09:00−8ssw359266 1.0 1022368
12:00−6sw578782 0.9 1021775
15:00−6sw578271 1.6 1020935
18:00−11sw559352 0.2 1022102
21:00−14ssw559455 0.3 1023105
8 march, mon
mon800:00−13ssw568847 0.0 1022119
03:00−12ssw458745 0.0 102286
06:00−12s449354 0.2 102170
09:00−8s458970 0.6 1019295
12:00−6s3484100 0.4 1017601
15:00−7ssw3487100 1.4 1016583
18:00−12sw339686 0.4 101745
21:00−15sw339472 0.4 101944
9 march, tue
tue900:00−16sw349456 0.1 101961
03:00−17sw459456 0.1 101988
06:00−17sw459464 0.1 1019114
09:00−14sw468761 0.1 1018296
12:00−11sw56778 0.0 1017698
15:00−11sw567816 0.1 1017825
18:00−16sw459332 0.1 101973
21:00−18sw459340 0.1 102380
10 march, wed
wed1000:00−18sw459350 0.0 1024120
03:00−19sw459349 0.1 1024105
06:00−20sw45880 0.0 102582
09:00−13sw56760 0.0 1024346
12:00−10sw577437 0.1 1021622
15:00−10sw577035 0.1 1019667
18:00−14ssw459395 0.1 1020104
21:00−14ssw579095 0.1 1020187
11 march, thu
thu1100:00−12ssw579199 0.6 1018232
03:00−13s449399 1.4 1017106
06:00−13s3395100 0.7 101659
09:00−10sse239296 1.1 1015223
12:00−9se239297 1.1 1012410
15:00−13nne339698 3.1 1012246
18:00−17nne3397100 2.8 1014125
21:00−15ne0198100 4.3 101748